Meteo Giornale » Osservazioni meteo Stati Uniti (USA) » Mesa Williams Gateway

ore: 14:55 - Osservazioni Meteo Mesa Williams Gateway
Lat. 33° 19' N Lon. 111° 39' W Alt. 421 metri s.l.m.

sereno

35 °C

Sereno

Temp. 24 Ore

23 °C

35 °C

Sud/Sud-Ovest

13 Km/h

Dew point 19 °C

Umidità 39 %

Visibilità  10 Km

Il sole sorge alle ore 06:01

Il sole tramonta alle ore 18:51

Data e Ora Cielo e Fenomeni T °C DP °C Um. % Pres. hPa Vis. km Vento km/h
Oggi h: 14:55 sereno Sereno 35 19 39 1013 10 S/SO 13
Oggi h: 13:55 poco_nuvoloso Poco Nuvoloso 35 19 39 1014 10 N 0
Oggi h: 12:50 poco_nuvoloso Poco Nuvoloso 34 19 41 1015 10 S 7.4
Oggi h: 11:47 sereno Sereno 32 20 49 1016 10 N 11.1
Oggi h: 10:50 sereno Sereno 32 19 46 1016 10 S 7.4
Oggi h: 09:50 sereno Sereno 30 19 51 1016 10 S 7.4
Oggi h: 08:47 sereno Sereno 28 20 61 1016 10 SE 13
Oggi h: 07:49 sereno Sereno 26 20 69 1016 10 SE 9.3
Oggi h: 06:53 sereno Sereno 24 19 73 1015 10 E 9.3
Oggi h: 05:55 sereno Sereno 23 20 83 1015 10 SE 7.4
Oggi h: 04:50 sereno Sereno 23 20 83 1014 10 SE 9.3
Oggi h: 04:35 sereno Sereno 24 20 78 1014 10 SE 7.4
Oggi h: 04:15 sereno Sereno 24 20 78 1014 10 E 11.1
Oggi h: 03:55 sereno Sereno 24 20 78 1014 10 E 7.4
Oggi h: 03:35 sereno Sereno 24 20 78 1014 10 E/SE 9.3
Oggi h: 03:15 sereno Sereno 24 20 78 1014 10 SE 11.1
Oggi h: 02:55 sereno Sereno 24 20 78 1014 10 E 7.4
Oggi h: 02:35 sereno Sereno 24 20 78 1015 10 N 0
Oggi h: 02:15 sereno Sereno 24 20 78 1015 10 N 0
Oggi h: 01:55 sereno Sereno 25 20 73 1015 10 N 0
Oggi h: 01:35 sereno Sereno 25 20 73 1015 10 N 5.5
Oggi h: 01:15 sereno Sereno 25 20 73 1015 10 N 5.5
Oggi h: 00:55 sereno Sereno 25 20 73 1015 10 N 0
Oggi h: 00:35 sereno Sereno 24 20 78 1015 10 N 0
Oggi h: 00:15 sereno Sereno 25 20 73 1014 10 E/SE 7.4
Ieri h: 23:50 sereno Sereno 24 21 83 1014 10 SE 11.1
Ieri h: 22:48 sereno Sereno 26 20 69 1014 10 E/SE 9.3
Ieri h: 21:54 sereno Sereno 27 19 61 1014 10 E 9.3
Ieri h: 20:50 sereno Sereno 27 18 57 1014 10 S/SE 11.1
Ieri h: 19:54 sereno Sereno 28 19 58 1014 10 S/SE 11.1
Ieri h: 18:48 sereno Sereno 30 18 48 1012 10 N 0
Ieri h: 17:50 sereno Sereno 31 16 40 1012 10 E 7.4
Ieri h: 16:47 poco_nuvoloso Poco Nuvoloso 30 19 51 1013 10 E 18.5
Ieri h: 15:48 nuvoloso Nuvoloso 29 18 51 1014 10 E/SE 18.5